DateTimeUTC,F1_A11,F1_S11,BsB_S11,BsG_S11,BsR_S11,BbsB_S11,BbsG_S11,BbsR_S11,BaB_A11,BaG_A11,BaR_A11,Tu_S11,T_S11,Uu_S11,U_S11,P_S11,T1_A11
2021-09-13T20:00:00Z,00000200,21000000,,,,,,,0000.13,-000.45,-000.39,18.7,25.8,01.5,01.0,0661.6,31.1
2021-09-13T20:01:00Z,00000200,21000000,,,,,,,-000.15,0000.33,-000.11,18.7,25.8,01.2,00.8,0661.6,31.1
2021-09-13T20:02:00Z,00000200,21000000,,,,,,,-000.35,0000.01,0000.09,18.6,25.8,01.2,00.8,0661.6,31.1
2021-09-13T20:03:00Z,00000200,61000000,,,,,,,0000.51,0000.10,0000.21,18.6,25.8,01.2,00.8,0661.6,31.1
2021-09-13T20:04:00Z,00000200,41000000,0000.85,0000.58,0000.52,-000.09,-000.26,0000.18,0000.53,0000.08,0000.08,18.8,25.6,01.4,00.9,0662.5,31.1
2021-09-13T20:05:00Z,00000200,01000000,0000.82,0000.54,0000.47,-000.06,-000.13,0000.12,-000.19,0000.62,-000.13,18.9,25.6,01.4,01.0,0662.5,31.1
2021-09-13T20:06:00Z,00000200,01000000,0001.37,0000.63,0000.36,0000.10,-000.06,0000.09,-000.08,0000.13,0000.02,18.9,25.5,01.4,00.9,0662.5,31.1
2021-09-13T20:07:00Z,00000200,01000000,0001.22,0000.56,0000.51,0000.26,0000.13,0000.24,0000.62,-000.13,0000.56,18.8,25.5,01.5,01.0,0662.5,31.1
2021-09-13T20:08:00Z,00000200,01000000,0001.00,0000.36,0000.42,-000.03,0000.17,0000.41,-000.12,-000.15,-000.45,18.9,25.5,01.5,01.0,0662.6,31.1
2021-09-13T20:09:00Z,00000200,01000000,0000.93,0000.56,0000.16,0000.21,0000.34,0000.02,0000.30,0000.65,0000.35,18.9,25.5,01.4,00.9,0662.6,31.1
2021-09-13T20:10:00Z,00000200,01000000,0001.11,0000.60,0000.38,0000.25,0000.02,0000.41,0000.04,-000.25,0000.19,18.8,25.5,01.4,00.9,0662.6,31.1
2021-09-13T20:11:00Z,00000200,01000000,0000.98,0000.53,0000.42,0000.29,0000.33,0000.47,0000.16,0000.68,0000.21,18.8,25.5,01.4,00.9,0662.5,31.1
2021-09-13T20:12:00Z,00000200,01000000,0000.94,0000.26,0000.56,0000.10,0000.09,0000.08,0000.20,-000.17,0000.05,18.8,25.5,01.4,00.9,0662.5,31.1
2021-09-13T20:13:00Z,00000200,01000000,0000.81,0000.67,0000.07,-000.57,-000.20,0000.25,0000.41,0000.06,0000.31,18.8,25.5,01.4,00.9,0662.6,31.1
2021-09-13T20:14:00Z,00000200,01000000,0001.11,0000.41,0000.23,-000.36,0000.02,0000.22,-000.33,-000.32,-000.26,18.8,25.5,01.4,00.9,0662.6,31.1
2021-09-13T20:15:00Z,00000200,01000000,0001.05,0000.48,0000.60,-000.35,0000.03,-000.03,0000.04,0000.23,0000.24,18.8,25.5,01.4,00.9,0662.6,31.1
2021-09-13T20:16:00Z,00000200,01000000,0001.34,0000.18,0000.02,0000.25,0000.03,-000.10,0000.38,0000.41,-000.08,18.8,25.5,01.4,00.9,0662.6,31.1
2021-09-13T20:17:00Z,00000200,01000000,0000.41,0000.64,0000.27,-000.54,0000.19,0000.09,0000.22,0000.07,0000.07,18.8,25.5,01.3,00.9,0662.6,31.1
2021-09-13T20:18:00Z,00000200,01000000,0000.46,0000.52,0000.62,-000.17,0000.16,0000.39,-000.16,0000.06,0000.09,18.8,25.5,01.3,00.9,0662.6,31.1
2021-09-13T20:19:00Z,00000200,01000000,0000.83,0000.37,0000.53,-000.65,0000.35,0000.24,0000.11,0000.03,0000.29,18.8,25.5,01.3,00.9,0662.6,31.1
2021-09-13T20:20:00Z,00000200,01000000,0001.22,0000.81,0000.39,-000.22,0000.11,0000.18,0000.23,0000.44,0000.25,18.8,25.5,01.3,00.9,0662.6,31.1
2021-09-13T20:21:00Z,00000200,01000000,0000.17,0000.29,0000.44,-000.08,-000.06,0000.13,0000.16,-000.11,-000.50,18.8,25.5,01.3,00.9,0662.6,31.1
2021-09-13T20:22:00Z,00000200,01000000,0001.34,0000.59,0000.31,-000.38,0000.10,0000.08,0000.01,-000.10,0000.18,18.8,25.4,01.3,00.9,0662.6,31.1
2021-09-13T20:23:00Z,00000200,01000000,0001.12,0000.54,0000.38,-000.07,0000.17,0000.06,-000.03,0000.27,0000.29,18.8,25.4,01.3,00.9,0662.6,31.1
2021-09-13T20:24:00Z,00000200,01000000,0000.64,0000.46,0000.42,-000.05,-000.09,0000.03,0000.30,0000.11,0000.29,18.8,25.4,01.3,00.9,0662.6,31.1
2021-09-13T20:25:00Z,00000200,01000000,0000.80,0000.89,0000.54,-000.23,0000.23,0000.03,-000.09,0000.16,-000.31,18.8,25.4,01.2,00.8,0662.6,31.1
2021-09-13T20:26:00Z,00000200,01000000,0001.39,0000.36,0000.32,-000.11,0000.16,-000.02,0000.06,0000.21,0000.26,18.8,25.4,01.2,00.8,0662.6,31.1
2021-09-13T20:27:00Z,00000200,01000000,0001.03,0000.45,0000.13,0000.04,0000.02,-000.09,0000.17,0000.36,0000.20,18.8,25.4,01.2,00.8,0662.6,31.1
2021-09-13T20:28:00Z,00000200,01000000,0000.87,0000.50,0000.32,-000.18,-000.26,0000.00,0000.48,-000.01,0000.25,18.8,25.4,01.2,00.8,0662.6,31.1
2021-09-13T20:29:00Z,00000200,01000000,0000.85,0000.62,0000.17,-000.45,0000.29,-000.08,0000.25,-000.22,0000.10,18.8,25.4,01.2,00.8,0662.6,31.1
2021-09-13T20:30:00Z,00000200,01000000,0001.30,0000.53,0000.65,0000.10,0000.22,0000.40,0000.22,0000.18,0000.44,18.8,25.4,01.2,00.8,0662.5,31.1
2021-09-13T20:31:00Z,00000200,01000000,0000.63,0000.26,0000.24,-000.06,-000.05,0000.11,-000.18,0000.21,-000.27,18.8,25.4,01.3,00.9,0662.5,31.1
2021-09-13T20:32:00Z,00000200,01000000,0000.38,0000.81,0000.32,0000.28,0000.23,0000.03,0000.17,0000.22,-000.28,18.8,25.4,01.2,00.8,0662.5,31.1
2021-09-13T20:33:00Z,00000200,01000000,0001.17,0000.54,0000.17,-000.55,-000.14,0000.37,0000.31,-000.01,0000.38,18.8,25.4,01.2,00.8,0662.5,31.1
2021-09-13T20:34:00Z,00000200,01000000,0001.04,0000.64,0000.10,0000.60,0000.20,0000.08,-000.21,0000.08,-000.15,18.8,25.4,01.2,00.8,0662.5,31.1
2021-09-13T20:35:00Z,00000200,01000000,0001.08,0000.24,0000.51,0000.51,0000.12,0000.29,0000.28,0000.10,0000.05,18.8,25.4,01.2,00.8,0662.5,31.1
2021-09-13T20:36:00Z,00000200,01000000,0001.81,0000.30,0000.41,0000.28,0000.20,0000.02,-000.30,-000.00,0000.02,18.8,25.4,01.2,00.8,0662.5,31.1
2021-09-13T20:37:00Z,00000200,01000000,0000.02,0000.63,0000.38,-000.32,0000.30,0000.42,-000.27,0000.07,0000.02,18.8,25.4,01.1,00.7,0662.5,31.1
2021-09-13T20:38:00Z,00000200,01000000,0001.21,0000.88,0000.19,-000.29,0000.11,-000.18,0000.40,0000.26,0000.40,18.8,25.4,01.1,00.7,0662.5,31.1
2021-09-13T20:39:00Z,00000200,01000000,0000.50,0000.81,0000.48,0000.55,-000.02,-000.12,-000.18,-000.52,-000.28,18.8,25.4,01.0,00.7,0662.5,31.1
2021-09-13T20:40:00Z,00000200,01000000,0000.56,0000.29,0000.70,0000.23,0000.31,0000.17,0000.19,0000.13,0000.16,18.8,25.4,01.1,00.7,0662.5,31.1
2021-09-13T20:41:00Z,00000200,01000000,0000.95,0000.66,0000.33,-000.05,0000.07,0000.31,0000.01,0000.19,-000.38,18.8,25.4,01.0,00.7,0662.5,31.1
2021-09-13T20:42:00Z,00000200,01000000,0001.24,0000.65,0000.19,0000.56,0000.20,0000.50,0000.37,0000.26,0000.25,18.8,25.4,01.0,00.7,0662.5,31.1
2021-09-13T20:43:00Z,00000200,01000000,0000.86,0000.11,0000.31,0000.06,-000.01,0000.14,-000.11,-000.40,-000.13,18.8,25.4,00.9,00.6,0662.5,31.1
2021-09-13T20:44:00Z,00000200,01000000,0000.89,0000.21,-000.01,-000.11,0000.12,0000.59,-000.09,0000.14,0000.31,18.8,25.4,00.9,00.6,0662.5,31.1
2021-09-13T20:45:00Z,00000200,01000000,0000.60,0000.41,0000.52,0000.01,0000.09,-000.04,0000.23,0000.37,0000.09,18.8,25.3,00.8,00.5,0662.5,31.1
2021-09-13T20:46:00Z,00000200,01000000,0000.20,0000.38,0000.46,-000.26,0000.18,0000.20,0000.01,0000.05,0000.18,18.8,25.3,00.9,00.6,0662.4,31.1
2021-09-13T20:47:00Z,00000200,01000000,0000.86,0000.57,0000.13,-000.21,-000.24,0000.03,0000.30,0000.35,-000.16,18.7,25.4,00.7,00.5,0662.4,31.1
2021-09-13T20:48:00Z,00000200,01000000,0001.44,0000.32,0000.35,0000.34,0000.21,0000.27,0000.17,-000.18,0000.37,18.8,25.4,00.8,00.5,0662.4,31.1
2021-09-13T20:49:00Z,00000200,01000000,0000.66,0000.20,0000.52,-000.80,0000.08,0000.40,0000.18,0000.18,-000.05,18.8,25.3,00.7,00.5,0662.4,31.1
2021-09-13T20:50:00Z,00000200,01000000,0001.62,0000.55,0000.29,-000.49,0000.13,-000.16,0000.31,0000.15,0000.25,18.8,25.3,00.9,00.6,0662.4,31.1
2021-09-13T20:51:00Z,00000200,01000000,0000.59,0000.54,0000.42,-000.09,0000.26,0000.15,-000.27,0000.35,0000.23,18.7,25.3,00.7,00.5,0662.4,31.1
2021-09-13T20:52:00Z,00000200,01000000,0000.80,0000.40,0000.27,0000.62,0000.12,0000.32,0000.39,-000.07,-000.08,18.7,25.3,00.8,00.6,0662.4,31.1
2021-09-13T20:53:00Z,00000200,01000000,0000.95,0000.77,0000.37,-000.12,0000.14,-000.20,0000.31,0000.37,0000.28,18.7,25.3,00.9,00.6,0662.4,31.1
2021-09-13T20:54:00Z,00000200,01000000,0001.31,0000.50,0000.42,0000.19,-000.36,0000.35,-000.06,-000.09,0000.03,18.7,25.3,00.8,00.5,0662.4,31.1
2021-09-13T20:55:00Z,00000200,01000000,0001.63,0000.48,0000.15,0000.05,0000.20,0000.03,0000.31,0000.15,0000.54,18.7,25.3,01.0,00.7,0662.4,31.1
2021-09-13T20:56:00Z,00000200,01000000,0000.61,0000.66,0000.33,-000.06,0000.33,0000.12,0000.36,0000.87,0000.36,18.7,25.3,01.0,00.6,0662.4,31.1
2021-09-13T20:57:00Z,00000200,41000000,,,,,,,0001.01,0000.62,0000.20,18.8,25.3,00.6,00.4,0662.4,31.1
2021-09-13T20:58:00Z,00000200,61000000,,,,,,,0000.09,-000.27,-000.16,18.6,25.5,00.9,00.6,0661.4,31.1
2021-09-13T20:59:00Z,00000200,21000000,,,,,,,-000.31,-000.05,0000.14,18.6,25.6,00.9,00.6,0661.4,31.1
